C/2020 F2 ( ATLAS )

Japanese version
Home page
Updated on May 3, 2020

---------------------------------------------------------------------

* Profile

Discovery Date March 21 and 22, 2020
Magnitude 19.3 mag and 19.3 mag
Discoverer Asteroid Terrestrial-Impact Last Alert System (ATLAS) search program, Pan-STARRS 1 telescope (Haleakala)

* Pictures

* Orbital Elements

Epoch 2022 June 30.0 TT = JDT 2459760.5
T 2022 July 15.70106 TT                                 Rudenko
q   8.8169013            (2000.0)            P               Q
z  -0.0005898      Peri.   48.35695     -0.89906224     -0.34774365
 +/-0.0000034      Node   250.27248     -0.43587789     +0.76809693
e   1.0051999      Incl.  163.58478     +0.04120149     +0.53768156
From 131 observations 2019 May 27-2020 Apr. 28, mean residual 0".4.

* Finding Charts

* Magnitudes Graph

        m1 = 2.5 + 5 log d + 10.0 log r

---------------------------------------------------------------------

The orbital elements are published on M.P.E.C. 2020-H235.
The charts are made with StellaNavigator Ver.10 (AstroArts).
The magnitudes graphs are made with Comet for Windows.

---------------------------------------------------------------------

Copyright(C) Seiichi Yoshida (comet@aerith.net). All rights reserved.